Temperature
13 13 13 12 12 12 12 12 12 11 11 11 11 11 11 11 11 11 11 11 11 11 11 11 11 11 11 11 11 11 11 11 11 11 11 11 11 11
13 13 12 12 12 12 11 11 11 11 11 11 11 11 11 11 11 11 11 11 11 11 11 11 11 11 11 11 11 11 11 11 11 11 11 11 11 11
13 12 12 12 12 11 11 11 11 11 11 11 10 10 10 11 11 11 11 11 11 11 11 11 11 11 11 11 11 11 11 11 11 11 11 11 11 11
12 12 12 12 12 11 11 11 11 11 11 10 10 10 10 10 10 10 11 11 10 10 10 10 10 10 10 10 10 10 10 10 10 10 10 10 10 10
12 12 12 11 11 11 11 11 11 10 10 10 10 10 10 10 10 10 10 10 10 10 10 10 10 10 10 10 10 10 10 10 10 10 10 10 10 10
12 12 11 11 11 11 11 11 10 10 10 10 10 10 10 10 10 10 10 10 10 10 10 10 10 10 10 10 10 10 10 10 10 10 10 10 10 10
12 11 11 11 11 11 10 10 10 10 10 10 10 10 10 9 9 9 10 10 10 10 10 10 10 10 10 10 10 10 9 9 9 9 10 10 10 10
11 11 11 11 11 10 10 10 10 10 10 10 9 9 9 9 9 9 9 9 9 9 9 10 10 9 10 9 9 9 9 9 9 9 9 9 9 9
11 11 11 11 10 10 10 10 10 9 9 9 9 9 9 9 9 9 9 9 9 9 9 9 9 9 9 9 9 9 9 9 9 9 9 9 9 9
11 11 11 11 10 10 10 10 9 9 9 9 9 9 9 9 8 8 8 8 9 9 8 9 9 9 9 9 9 9 9 9 9 9 9 9 9 9
10 10 10 10 10 10 9 9 9 9 9 9 8 8 8 8 8 8 8 8 8 8 8 8 8 9 9 9 9 9 8 8 8 8 8 8 8 8
10 10 10 9 9 9 9 9 9 9 9 8 8 8 8 8 8 8 8 7 7 8 8 8 8 8 8 9 9 8 8 8 8 8 8 8 8 8
9 9 9 9 9 9 9 9 9 8 8 8 8 8 8 8 8 7 7 7 7 7 7 7 7 7 7 7 8 8 8 8 8 8 8 8 8 7
9 9 8 8 8 8 8 8 8 8 8 8 8 8 8 8 7 7 7 7 7 7 7 7 7 7 7 7 7 7 7 7 7 7 8 8 7 7
8 8 8 8 7 7 7 7 7 7 7 7 7 7 7 7 7 7 7 7 7 7 6 6 6 6 6 6 6 6 7 7 7 7 7 7 7 7
7 7 7 7 7 7 7 6 6 6 6 6 6 6 6 6 6 6 6 6 7 7 6 6 6 6 6 6 6 6 6 6 6 6 6 6 7 6
7 7 7 7 6 6 6 6 6 6 6 6 6 6 6 6 6 6 6 6 6 6 6 6 6 6 6 5 5 6 6 6 6 6 6 6 6 6
7 6 6 6 6 6 6 5 5 5 5 5 5 5 5 5 5 5 5 5 5 5 5 6 6 6 6 5 5 5 5 5 5 5 5 5 5 5
6 6 6 5 5 5 5 5 5 5 5 5 5 5 5 5 5 5 5 5 5 5 5 5 5 5 5 5 5 5 5 5 5 5 5 4 5 5
5 5 5 5 5 5 5 4 4 4 4 4 4 4 4 4 4 4 4 4 4 4 5 5 4 4 4 4 4 4 4 4 4 4 4 4 4 4
5 5 5 5 4 4 4 4 4 4 4 4 4 4 3 3 4 4 4 4 4 4 4 4 4 4 4 4 4 4 4 4 4 3 3 3 4 4
5 4 4 4 4 4 4 4 3 3 3 3 3 3 3 3 3 3 3 3 3 3 3 4 4 4 4 3 3 3 4 4 4 3 3 3 3 3
4 4 4 4 4 3 3 3 3 3 3 3 3 3 3 3 3 3 3 3 3 3 3 3 3 3 3 3 3 3 3 3 3 3 3 3 3 3
Wind_Speed
2 2 1 1 1 2 2 3 3 1 2 2 2 2 1 1 2 2 2 2 2 2 2 3 2 3 3 4 4 5 5 5 5 5 5 5 5 5
1 2 1 1 1 1 2 2 2 3 2 2 2 2 2 1 2 2 3 3 3 3 3 3 3 3 4 4 5 5 5 5 6 6 6 6 6 6
1 2 1 1 1 1 1 1 1 2 2 2 2 2 1 2 1 2 2 2 2 3 3 3 4 4 5 5 5 5 6 6 6 7 7 7 7 7
2 2 2 2 2 1 2 2 1 1 2 1 1 1 2 2 2 2 2 2 2 3 4 4 5 5 5 5 6 6 6 7 7 7 7 7 7 7
4 4 3 3 2 2 2 2 1 1 1 1 1 1 2 2 2 2 2 2 2 3 4 5 6 6 6 6 6 6 7 7 7 7 7 7 7 7
3 4 4 4 4 4 3 3 2 2 1 1 0 1 2 2 1 1 2 2 3 3 4 4 5 6 6 6 7 7 7 7 8 8 8 8 8 8
2 3 4 4 5 4 3 3 3 2 2 1 0 1 2 1 1 1 2 3 3 2 2 3 3 4 5 6 7 7 7 7 8 8 8 8 8 9
4 3 2 3 3 3 4 4 5 4 3 2 2 2 3 2 1 1 1 1 3 2 2 3 2 3 4 5 6 7 7 7 7 8 8 9 9 9
5 4 2 2 2 2 2 2 2 3 5 5 4 4 3 3 2 1 1 2 3 3 1 3 3 3 4 6 7 7 8 8 8 8 8 8 9 9
4 4 4 3 3 4 3 1 1 1 3 3 5 5 4 4 4 3 3 2 3 2 0 2 3 3 4 5 7 7 8 8 8 8 9 9 9 9
2 2 3 3 4 5 4 3 1 2 2 2 3 3 2 2 2 2 1 1 2 3 1 1 3 3 3 3 5 6 7 8 9 9 9 9 9 8
1 1 3 3 3 4 4 4 3 3 1 1 1 1 1 1 1 2 3 2 1 2 2 1 2 2 3 3 3 4 6 7 8 9 9 9 8 5
2 1 1 2 3 3 3 3 3 2 1 1 0 1 1 1 1 1 2 3 3 3 3 1 2 1 2 3 3 3 3 4 5 7 8 9 8 5
2 2 2 2 2 2 2 1 2 2 1 1 0 1 1 2 2 2 2 3 4 4 4 2 2 2 2 3 4 4 4 4 4 4 5 7 7 7
2 2 2 2 2 1 1 1 1 1 1 1 1 2 2 3 2 1 1 2 3 4 4 3 3 3 3 4 4 4 3 4 3 3 4 4 4 4
1 2 3 2 2 1 1 1 0 1 1 1 2 2 2 1 1 1 1 2 2 4 4 5 4 3 4 5 4 4 3 3 3 4 4 4 5 5
2 2 2 1 1 1 1 1 0 0 0 1 1 1 1 1 2 1 1 1 2 3 4 3 3 4 4 4 4 5 4 4 4 4 3 4 5 5
4 2 2 1 2 1 1 1 1 1 1 1 1 1 1 2 2 2 1 1 3 4 4 3 2 3 3 3 5 5 4 4 4 3 3 4 6 5
3 2 2 2 2 2 2 2 2 2 1 1 1 2 2 2 2 2 2 2 3 4 4 3 2 1 3 5 4 4 4 4 3 3 3 4 6 6
3 3 3 3 3 2 2 2 2 1 1 1 2 2 2 2 2 2 2 3 4 4 4 3 2 3 4 5 5 4 5 4 4 4 4 4 4 6
4 3 3 3 3 3 3 2 2 2 2 2 2 2 2 2 2 3 3 4 4 3 4 5 6 6 4 2 3 4 4 5 5 4 3 3 4 3
4 4 3 3 3 3 3 2 2 2 2 2 2 3 3 2 3 4 3 4 4 4 6 6 4 3 2 3 5 6 5 5 5 6 5 4 2 3
4 4 4 4 4 3 3 3 3 3 3 3 3 3 3 3 3 3 4 4 4 4 5 5 4 3 3 4 5 5 6 5 4 4 5 8 8 10
Wind_Direction
160 156 145 170 150 149 146 155 154 186 271 285 298 295 295 262 268 228 241 266 282 295 304 316 301 294 304 313 318 313 293 286 286 288 291 296 296 300
164 141 131 148 143 130 145 152 153 163 211 254 255 279 293 306 284 237 241 275 277 283 293 296 296 293 296 302 302 312 305 292 288 288 287 292 293 292
151 142 150 121 116 119 122 122 130 144 174 264 282 299 305 301 314 279 269 263 273 286 291 296 300 298 294 296 300 306 306 304 296 291 288 290 292 290
163 150 163 129 112 115 118 124 139 155 160 216 287 320 297 284 294 302 307 285 264 281 284 294 305 301 292 292 293 295 299 303 302 294 290 290 289 290
171 169 174 148 142 149 137 140 152 131 133 167 256 292 297 313 323 308 313 306 300 295 282 284 293 295 294 290 294 295 299 296 297 300 296 291 286 285
179 178 179 177 178 173 168 169 151 124 112 124 243 298 295 305 344 305 315 309 300 313 298 290 295 295 295 295 295 296 296 293 288 290 290 287 283 283
176 180 185 183 185 183 181 177 157 146 137 146 213 317 304 321 294 275 288 305 298 309 305 303 307 301 296 293 293 292 292 294 294 292 292 290 284 278
183 190 185 176 178 170 166 167 166 167 179 181 210 229 256 259 274 276 292 344 307 306 305 295 313 286 288 280 290 291 290 292 294 295 293 292 290 282
184 181 182 183 158 164 154 140 170 183 185 184 198 223 231 232 216 242 243 240 252 276 304 287 300 286 288 290 295 291 291 291 292 294 294 291 291 288
187 184 176 184 185 160 152 134 192 234 219 198 202 224 230 221 205 214 227 257 281 286 227 265 283 276 290 288 294 292 294 294 297 296 294 292 290 291
184 179 174 191 193 163 152 161 214 277 254 226 217 218 227 216 160 124 63 14 304 294 270 245 280 290 286 282 295 299 297 299 300 300 296 293 290 289
172 190 188 186 181 165 163 170 198 243 270 296 318 340 10 358 163 167 181 194 261 286 286 274 287 323 310 291 297 312 306 301 300 301 302 296 294 296
176 220 232 184 169 168 164 178 202 193 189 191 216 316 356 346 308 242 200 194 213 254 270 257 282 297 270 294 307 308 315 313 312 309 305 300 296 289
183 209 225 184 167 156 163 217 199 136 114 110 115 260 278 280 272 260 256 238 230 243 262 235 237 254 270 286 291 301 307 312 312 309 306 302 296 289
179 186 180 152 137 154 181 163 131 118 132 147 207 253 259 261 271 288 291 284 285 286 290 264 241 248 241 255 272 283 293 295 301 300 307 301 296 305
159 163 146 120 99 86 77 89 124 162 169 201 238 263 285 298 291 274 278 294 297 294 295 286 268 244 253 257 257 271 273 282 296 289 289 294 300 292
136 106 91 90 82 48 28 28 39 104 225 246 233 274 296 297 293 295 277 286 280 289 301 306 295 272 249 243 255 262 271 278 280 286 293 290 281 288
131 143 159 176 191 198 207 257 266 260 263 258 248 262 270 273 291 307 298 266 274 282 289 302 324 335 326 290 240 250 269 271 279 277 272 282 290 292
152 180 192 205 215 218 223 228 243 255 259 258 264 273 278 280 285 290 291 286 279 280 282 286 294 288 298 297 283 244 256 278 284 280 271 266 276 285
195 199 207 210 212 217 224 229 238 251 261 261 266 276 278 281 288 285 284 279 277 283 289 287 274 261 256 271 280 282 270 262 267 273 277 277 282 297
209 211 210 210 214 217 221 226 226 234 246 255 264 268 269 271 275 276 278 287 286 282 282 280 273 278 270 276 282 285 288 283 270 268 276 289 303 309
212 214 214 215 216 216 218 217 221 231 240 244 253 255 257 257 263 269 274 278 280 275 276 285 294 287 260 259 272 283 295 308 307 292 283 275 272 272
212 213 215 216 218 215 214 216 220 231 235 240 248 253 254 258 264 267 271 272 282 288 290 297 305 291 269 263 271 280 289 299 308 312 307 312 293 286
Height
1527 1526 1526 1526 1526 1526 1526 1526 1527 1525 1525 1525 1525 1524 1524 1523 1523 1522 1522 1521 1520 1520 1519 1518 1518 1517 1516 1516 1515 1514 1514 1513 1513 1513 1512 1512 1511 1511
1525 1524 1524 1524 1524 1524 1524 1524 1524 1524 1523 1523 1523 1523 1522 1522 1521 1520 1520 1519 1519 1518 1517 1517 1516 1515 1515 1514 1513 1512 1512 1512 1511 1511 1510 1510 1509 1509
1523 1523 1522 1522 1522 1522 1522 1522 1522 1522 1522 1521 1521 1521 1521 1520 1519 1518 1518 1517 1517 1516 1516 1515 1514 1513 1512 1512 1511 1510 1510 1509 1509 1508 1508 1507 1507 1507
1521 1520 1520 1520 1520 1520 1520 1520 1520 1520 1520 1519 1519 1519 1518 1517 1517 1516 1515 1515 1515 1514 1513 1513 1512 1511 1511 1510 1509 1508 1507 1507 1506 1506 1505 1505 1504 1504
1518 1518 1518 1518 1518 1518 1518 1518 1518 1518 1518 1517 1516 1516 1516 1515 1514 1514 1513 1513 1512 1512 1511 1511 1510 1509 1508 1507 1506 1505 1505 1504 1503 1503 1502 1502 1501 1501
1516 1516 1516 1516 1515 1515 1515 1515 1515 1515 1515 1515 1514 1514 1513 1513 1512 1511 1511 1510 1510 1510 1509 1508 1508 1507 1506 1505 1504 1503 1502 1501 1501 1500 1499 1499 1498 1497
1513 1513 1513 1513 1513 1513 1513 1513 1513 1513 1513 1512 1512 1511 1511 1510 1510 1509 1509 1508 1507 1507 1506 1506 1505 1504 1503 1502 1501 1500 1499 1498 1497 1497 1496 1495 1494 1494
1510 1510 1511 1511 1511 1511 1511 1511 1511 1511 1510 1510 1509 1509 1508 1508 1507 1507 1506 1505 1504 1505 1504 1503 1502 1501 1500 1499 1498 1497 1496 1495 1494 1493 1492 1491 1491 1490
1507 1507 1508 1508 1508 1508 1508 1508 1508 1508 1508 1508 1507 1506 1506 1506 1505 1505 1504 1503 1502 1502 1501 1499 1499 1498 1497 1496 1495 1494 1493 1492 1491 1490 1489 1488 1487 1486
1504 1504 1505 1505 1505 1505 1505 1505 1505 1505 1504 1504 1504 1504 1504 1504 1503 1503 1502 1501 1500 1499 1499 1496 1495 1495 1494 1493 1492 1491 1490 1489 1487 1486 1485 1484 1483 1481
1501 1501 1501 1501 1502 1502 1502 1502 1502 1502 1502 1501 1501 1501 1501 1501 1501 1500 1499 1498 1496 1496 1495 1494 1492 1491 1490 1489 1489 1488 1486 1485 1484 1482 1481 1480 1478 1477
1497 1497 1497 1498 1498 1498 1498 1498 1498 1498 1498 1498 1498 1498 1498 1497 1497 1497 1496 1495 1494 1493 1492 1491 1490 1488 1486 1485 1485 1484 1482 1481 1480 1479 1477 1476 1474 1473
1493 1493 1493 1494 1494 1495 1495 1495 1495 1495 1495 1495 1494 1494 1494 1494 1493 1493 1493 1492 1491 1490 1490 1489 1487 1486 1485 1482 1480 1480 1479 1477 1476 1474 1473 1472 1470 1469
1490 1490 1491 1491 1491 1491 1492 1492 1492 1491 1491 1491 1491 1491 1490 1490 1490 1490 1489 1489 1488 1488 1487 1486 1484 1483 1481 1479 1477 1476 1475 1473 1472 1470 1469 1468 1466 1465
1487 1487 1488 1488 1488 1488 1488 1488 1488 1488 1488 1487 1487 1487 1487 1487 1487 1486 1485 1485 1485 1484 1483 1482 1481 1480 1478 1476 1474 1472 1470 1469 1468 1466 1465 1463 1461 1460
1484 1484 1484 1484 1485 1485 1485 1485 1485 1484 1484 1484 1484 1484 1483 1483 1483 1482 1482 1481 1480 1479 1479 1478 1477 1476 1474 1472 1471 1468 1467 1466 1464 1463 1461 1459 1458 1456
1480 1480 1480 1480 1481 1481 1481 1481 1481 1481 1481 1481 1480 1480 1480 1479 1479 1478 1478 1477 1476 1475 1474 1474 1473 1472 1470 1469 1466 1464 1463 1462 1460 1459 1457 1454 1453 1452
1476 1476 1476 1476 1477 1477 1477 1477 1478 1477 1478 1477 1477 1476 1476 1476 1475 1475 1474 1474 1472 1471 1471 1470 1468 1467 1465 1463 1463 1460 1459 1457 1456 1455 1453 1450 1448 1447
1472 1472 1472 1473 1473 1474 1474 1474 1474 1474 1474 1474 1473 1473 1473 1472 1471 1471 1470 1469 1468 1467 1467 1466 1464 1463 1461 1458 1457 1457 1455 1453 1452 1450 1448 1446 1444 1442
1467 1468 1468 1469 1470 1470 1471 1471 1471 1470 1470 1470 1470 1469 1469 1468 1468 1467 1466 1465 1464 1463 1462 1461 1460 1459 1457 1456 1453 1451 1451 1449 1447 1445 1443 1442 1440 1438
1463 1464 1464 1465 1466 1466 1467 1467 1467 1466 1467 1466 1466 1466 1465 1465 1464 1463 1462 1461 1460 1459 1458 1456 1455 1455 1453 1452 1449 1446 1446 1445 1444 1442 1439 1437 1434 1432
1459 1460 1460 1461 1462 1462 1462 1463 1462 1462 1462 1462 1462 1462 1461 1460 1460 1459 1458 1457 1456 1455 1453 1452 1451 1450 1448 1447 1444 1442 1441 1440 1439 1438 1436 1434 1431 1428
1455 1456 1456 1457 1457 1458 1458 1458 1458 1458 1458 1458 1458 1457 1457 1456 1455 1455 1454 1453 1452 1451 1449 1447 1446 1445 1443 1442 1441 1439 1437 1436 1434 1432 1431 1430 1428 1427